Date String (YYYY-MM-DD hh:mm:ss) UTC,Instrument flags,absolute air pressure of the measurement (hPa),sample flow rate (lpm),inlet stack bypass flow (lpm),air temperature of the measurement (°C),ambient temperature measured by the external sensor (°C),aerosol sample conditioner tube jacket temperature (°C),OPC LED temperature (°C),internal box temperature (°C),relative humidity of the measurement (%),span deviation,mass concentration of particles derived from Lorenz-Mie calculation of OPC scattering (μg/m³),mass concentration of particles derived from Lorenz-Mie calculation of OPC scattering (μg/m³),mass concentration of particles derived from Lorenz-Mie calculation of OPC scattering (μg/m³)
DateTimeUTC,F1_M11,P_M11,Q1_M11,Q2_M11,T1_M11,T2_M11,T3_M11,T4_M11,T5_M11,U1_M11,ZSPAN_M11,X0_M11,X2_M11,X1_M11
2023-10-26 23:00:00,SystemResetWarning,0826.0,4.99,000.00,028.2,026.6,000.0,036.8,029.7,21.5,-001.3,0013.20,0009.08,0008.68
2023-10-26 23:01:00,SystemResetWarning,0826.1,4.99,000.00,028.2,026.6,000.0,036.8,029.7,21.5,-001.2,0013.65,0009.05,0008.66
2023-10-26 23:02:00,SystemResetWarning,0826.2,4.99,000.00,028.2,026.6,000.0,036.8,029.7,21.5,-000.9,0013.57,0009.01,0008.62
2023-10-26 23:03:00,SystemResetWarning,0826.1,5.00,000.00,028.2,026.6,000.0,036.8,029.8,21.5,-001.2,0013.56,0009.01,0008.61
2023-10-26 23:04:00,SystemResetWarning,0826.2,5.00,000.00,028.2,026.6,000.0,036.8,029.7,21.5,-001.2,0013.50,0008.98,0008.58
2023-10-26 23:05:00,SystemResetWarning,0826.2,5.00,000.00,028.2,026.6,000.0,036.8,029.7,21.5,-001.1,0013.61,0009.00,0008.58
2023-10-26 23:06:00,SystemResetWarning,0826.2,5.00,000.00,028.2,026.6,000.0,036.8,029.7,21.4,-001.4,0013.96,0009.01,0008.58
2023-10-26 23:07:00,SystemResetWarning,0826.1,5.00,000.00,028.1,026.6,000.0,036.7,029.7,21.4,-001.3,0013.86,0009.01,0008.57
2023-10-26 23:08:00,SystemResetWarning,0826.1,5.00,000.00,028.1,026.6,000.0,036.7,029.7,21.4,-001.5,0013.74,0008.95,0008.52
2023-10-26 23:09:00,SystemResetWarning,0826.0,5.00,000.00,028.1,026.6,000.0,036.7,029.7,21.4,-001.5,0013.76,0008.94,0008.49
2023-10-26 23:10:00,SystemResetWarning,0826.2,5.00,000.00,028.1,026.6,000.0,036.7,029.6,21.4,-001.6,0013.72,0008.91,0008.47
2023-10-26 23:11:00,SystemResetWarning,0826.2,5.00,000.00,028.1,026.6,000.0,036.7,029.7,21.4,-001.4,0013.37,0008.87,0008.46
2023-10-26 23:12:00,SystemResetWarning,0826.2,5.00,000.00,028.1,026.5,000.0,036.7,029.7,21.3,-001.3,0012.70,0008.85,0008.45
2023-10-26 23:13:00,SystemResetWarning,0826.3,5.00,000.00,028.1,026.6,000.0,036.7,029.7,21.3,-001.2,0012.68,0008.84,0008.43
2023-10-26 23:14:00,SystemResetWarning,0826.3,5.00,000.00,028.1,026.6,000.0,036.7,029.7,21.3,-001.0,0012.56,0008.77,0008.37
2023-10-26 23:15:00,SystemResetWarning,0826.3,5.00,000.00,028.1,026.6,000.0,036.7,029.7,21.2,-000.8,0012.68,0008.73,0008.33
2023-10-26 23:16:00,SystemResetWarning,0826.4,5.00,000.00,028.1,026.7,000.0,036.7,029.7,21.2,-000.6,0013.59,0008.66,0008.27
2023-10-26 23:17:00,SystemResetWarning,0826.4,5.00,000.00,028.1,026.7,000.0,036.7,029.7,21.2,-000.4,0013.10,0008.55,0008.18
2023-10-26 23:18:00,SystemResetWarning,0826.4,4.99,000.00,028.2,026.8,000.0,036.7,029.7,21.2,-000.3,0013.03,0008.48,0008.08
2023-10-26 23:19:00,SystemResetWarning,0826.4,4.99,000.00,028.2,026.8,000.0,036.7,029.7,21.2,-000.5,0012.94,0008.41,0008.01
2023-10-26 23:20:00,SystemResetWarning,0826.4,5.00,000.00,028.2,026.8,000.0,036.7,029.7,21.2,-000.5,0012.68,0008.26,0007.90
2023-10-26 23:21:00,SystemResetWarning,0826.4,5.00,000.00,028.2,026.8,000.0,036.7,029.7,21.2,-000.6,0012.50,0008.15,0007.80
2023-10-26 23:22:00,SystemResetWarning,0826.4,5.00,000.00,028.2,026.8,000.0,036.7,029.7,21.2,-000.8,0012.35,0008.03,0007.69
2023-10-26 23:23:00,SystemResetWarning,0826.4,5.01,000.00,028.2,026.8,000.0,036.7,029.7,21.2,-001.0,0020.64,0007.93,0007.55
2023-10-26 23:24:00,SystemResetWarning,0826.4,5.00,000.00,028.2,026.8,000.0,036.7,029.8,21.2,-001.5,0080.26,0008.09,0007.31
2023-10-26 23:25:00,SystemResetWarning,0826.5,5.00,000.00,028.2,026.9,000.0,036.7,029.8,21.2,-001.5,0137.44,0008.71,0006.93
2023-10-26 23:26:00,SystemResetWarning,0826.5,5.00,000.00,028.2,026.9,000.0,036.7,029.8,21.2,-001.7,0201.75,0009.77,0006.78
2023-10-26 23:27:00,SystemResetWarning,0826.6,5.00,000.00,028.2,026.9,000.0,036.7,029.8,21.2,-002.2,0200.37,0009.63,0006.63
2023-10-26 23:28:00,SystemResetWarning,0826.6,5.00,000.00,028.2,026.9,000.0,036.7,029.8,21.2,-002.3,0200.43,0009.54,0006.53
2023-10-26 23:29:00,SystemResetWarning,0826.7,5.00,000.00,028.2,026.9,000.0,036.7,029.8,21.2,-001.9,0200.35,0009.45,0006.42
2023-10-26 23:30:00,SystemResetWarning,0826.8,5.00,000.00,028.2,026.9,000.0,036.7,029.8,21.2,-002.0,0200.65,0009.38,0006.33
2023-10-26 23:31:00,SystemResetWarning,0826.8,5.00,000.00,028.2,026.9,000.0,036.7,029.8,21.2,-002.1,0201.00,0009.35,0006.25
2023-10-26 23:32:00,SystemResetWarning,0826.9,5.00,000.00,028.2,026.9,000.0,036.7,029.8,21.2,-002.3,0200.93,0009.26,0006.16
2023-10-26 23:33:00,SystemResetWarning,0826.9,5.00,000.00,028.2,026.9,000.0,036.7,029.7,21.2,-002.3,0200.85,0009.18,0006.08
2023-10-26 23:34:00,SystemResetWarning,0826.9,5.00,000.00,028.2,026.8,000.0,036.7,029.7,21.3,-002.0,0200.84,0009.13,0006.00
2023-10-26 23:35:00,SystemResetWarning,0826.8,5.00,000.00,028.2,026.8,000.0,036.7,029.7,21.3,-001.8,0137.28,0008.65,0005.97
2023-10-26 23:36:00,SystemResetWarning,0826.8,5.00,000.00,028.2,026.8,000.0,036.7,029.7,21.3,-001.8,0084.14,0008.04,0006.25
2023-10-26 23:37:00,SystemResetWarning,0826.9,5.00,000.00,028.2,026.8,000.0,036.7,029.7,21.3,-001.7,0010.60,0006.65,0006.22
2023-10-26 23:38:00,SystemResetWarning,0826.9,5.00,000.00,028.2,026.8,000.0,036.7,029.7,21.3,-001.7,0010.59,0006.65,0006.19
2023-10-26 23:39:00,SystemResetWarning,0826.9,5.00,000.00,028.2,026.8,000.0,036.7,029.7,21.3,-001.7,0010.40,0006.61,0006.15
2023-10-26 23:40:00,SystemResetWarning,0826.8,5.00,000.00,028.2,026.8,000.0,036.7,029.7,21.3,-001.8,0010.31,0006.56,0006.12
2023-10-26 23:41:00,SystemResetWarning,0826.9,5.00,000.00,028.2,026.8,000.0,036.7,029.7,21.3,-001.6,0009.91,0006.50,0006.08
2023-10-26 23:42:00,SystemResetWarning,0826.9,5.00,000.00,028.2,026.8,000.0,036.7,029.7,21.2,-001.5,0009.47,0006.42,0006.03
2023-10-26 23:43:00,SystemResetWarning,0826.9,5.00,000.00,028.1,026.7,000.0,036.7,029.6,21.1,-001.3,0009.50,0006.39,0006.00
2023-10-26 23:44:00,SystemResetWarning,0827.0,4.99,000.00,028.1,026.7,000.0,036.7,029.6,21.0,-001.3,0009.74,0006.32,0005.93
2023-10-26 23:45:00,SystemResetWarning,0827.0,5.00,000.00,028.1,026.7,000.0,036.7,029.6,20.9,-001.4,0010.52,0006.23,0005.83
2023-10-26 23:46:00,SystemResetWarning,0827.1,5.00,000.00,028.1,026.7,000.0,036.7,029.6,20.8,-001.5,0010.70,0006.11,0005.68
2023-10-26 23:47:00,SystemResetWarning,0827.2,5.00,000.00,028.1,026.7,000.0,036.7,029.6,20.7,-001.6,0010.75,0005.92,0005.49
2023-10-26 23:48:00,SystemResetWarning,0827.1,5.00,000.00,028.1,026.6,000.0,036.7,029.6,20.7,-001.6,0010.61,0005.76,0005.31
2023-10-26 23:49:00,SystemResetWarning,0827.1,5.00,000.00,028.1,026.6,000.0,036.6,029.6,20.6,-001.4,0010.42,0005.57,0005.14
2023-10-26 23:50:00,SystemResetWarning,0827.1,5.00,000.00,028.1,026.6,000.0,036.6,029.6,20.6,-001.4,0010.14,0005.36,0004.94
2023-10-26 23:51:00,SystemResetWarning,0827.2,5.00,000.00,028.1,026.6,000.0,036.6,029.5,20.5,-001.3,0009.94,0005.14,0004.73
2023-10-26 23:52:00,SystemResetWarning,0827.2,5.00,000.00,028.1,026.6,000.0,036.6,029.5,20.4,-001.2,0009.72,0004.93,0004.51
2023-10-26 23:53:00,SystemResetWarning,0827.3,5.00,000.00,028.1,026.6,000.0,036.6,029.5,20.3,-000.9,0009.49,0004.72,0004.31
2023-10-26 23:54:00,SystemResetWarning,0827.3,5.00,000.00,028.0,026.6,000.0,036.6,029.5,20.3,-000.6,0009.23,0004.53,0004.13
2023-10-26 23:55:00,SystemResetWarning,0827.4,5.00,000.00,028.0,026.5,000.0,036.6,029.5,20.3,-000.4,0008.85,0004.38,0003.96
2023-10-26 23:56:00,SystemResetWarning,0827.4,5.00,000.00,028.0,026.6,000.0,036.6,029.5,20.3,-000.1,0008.00,0004.24,0003.85
2023-10-26 23:57:00,SystemResetWarning,0827.6,5.00,000.00,028.0,026.6,000.0,036.6,029.5,20.3,0000.9,0007.46,0004.17,0003.79
2023-10-26 23:58:00,SystemResetWarning,0827.6,5.01,000.00,028.0,026.5,000.0,036.6,029.5,20.3,0001.4,0007.64,0004.14,0003.77
2023-10-26 23:59:00,SystemResetWarning,0827.5,5.01,000.00,028.0,026.5,000.0,036.6,029.5,20.3,0001.4,0007.60,0004.12,0003.76
